Location: ????????
(55.5667°N, 37.5833°E)
Time: 18:26:50
(UTC+00:00)

IRS-1A Rocket - Pass Details

Date: 14 April 2026
Orbit: 852 x 930 km, 98.9° (Epoch: 19 May)

Event Time Altitude Azimuth Distance (km) Brightness Sun altitude
Exits shadow 17:26:20 - 151° (SSE) 3,012 6.6 -7.7°
Reaches altitude 10° 17:27:37 10° 150° (SSE) 2,507 6.1 -7.8°
Maximum altitude 17:33:09 70° 68° (ENE) 938 4.3 -8.5°
Drops below altitude 10° 17:38:51 10° 346° (NNW) 2,573 7.4 -9.2°
Sets 17:41:17 0° 345° (NNW) 3,529 8.2 -9.5°
